KUIPER-00499

导读 | 豆包AI

KUIPER-00499(NORAD编号68881)是亚马逊Project Kuiper卫星星座的通信卫星,由Kuiper Systems LLC运营,属于低轨互联网星座计划的组成部分。该星座计划部署3236颗卫星,分三层轨道运行,旨在为全球提供宽带互联网接入服务,与SpaceX星链展开竞争。KUIPER系列卫星通过Atlas V火箭分批发射,KUIPER-00499运行于近地轨道,承担全球网络覆盖任务,助力偏远地区网络接入,是亚马逊布局太空互联网的重要节点,目前星座正按计划推进部署,目标在2026年中期完成半数卫星发射。

Basic Information
目录编号:
68881
目录名称:
KUIPER-00499
国际标识:
2026-095T
轨道中心:
EARTH
卫星名称:
KUIPER-00499
卫星全名:
KUIPER-00499
卫星状态:
在轨 (已飞行27 天)
发射日期:
2026-04-28 UTC
国别 :
美国 (US)
星等 :
--
Orbit Information
数据来源 国际轨道数据
星历时间: 2026-05-24T07:56:51+0800
1天前
查看轨道信息
半长轴: 6838.242km
偏心率: 0.0007951
轨道倾角: 51.871°
近地点辐角 211.899°
升交点赤经 359.639°
平近点角 148.152°
近地点: 454.667km
远地点: 465.543km
周期: 93.794分钟
每日圈数: 15.352746
Detailed Information
使用方式:
暂无
2D Orbit Map
3D Orbit Map
Orbit Altitude Analysis Chart
Orbit Inclination Analysis Chart
Orbit Comprehensive Analysis Chart
View Comprehensive Chart